Lapse_Rate
5.2 5.1 5.0 4.8 4.6 4.4 4.5 4.6 4.8 5.2 5.3 5.1 5.0 5.1 5.1 4.8 4.8 4.9 4.9 4.9 5.0 5.2 5.0 4.8 4.6 4.6 4.5 4.4 4.4 4.6 4.7 4.8 4.8 5.0 5.0 5.1 5.2 5.1
5.1 4.7 4.6 4.4 4.4 4.4 4.6 4.8 4.9 4.9 5.0 5.2 5.1 5.0 5.1 5.1 5.0 4.9 4.9 5.0 5.2 5.1 4.7 4.7 4.7 4.6 4.5 4.4 4.4 4.4 4.6 4.7 4.8 4.9 4.8 4.9 4.9 5.1
4.8 4.5 4.1 4.2 4.5 4.8 4.9 4.9 4.8 5.1 4.8 4.9 5.1 5.0 5.1 5.1 4.9 4.9 5.0 5.2 5.0 4.6 4.7 4.5 4.7 4.4 4.5 4.6 4.5 4.5 4.6 4.8 4.8 4.8 5.0 5.3 5.2 5.2
5.0 4.5 4.3 4.3 4.6 4.9 5.0 5.0 4.9 5.0 4.9 5.0 5.1 5.1 5.1 5.0 5.0 5.1 5.0 5.1 4.6 4.3 4.5 4.6 4.8 4.7 4.7 4.5 4.6 4.6 4.5 4.6 4.8 4.9 4.9 5.5 5.5 5.4
5.6 5.4 4.7 4.9 4.8 5.0 5.1 5.0 5.0 5.0 5.0 5.1 5.1 5.2 5.2 5.2 5.1 5.2 5.2 5.0 4.8 4.3 4.5 4.8 4.6 4.8 4.5 4.6 4.7 4.7 4.7 4.9 5.0 5.0 5.4 5.4 5.5 5.6
5.1 5.6 5.6 5.2 5.1 5.2 5.0 4.8 4.8 5.0 5.2 5.1 5.1 5.1 5.2 5.1 5.3 5.2 4.9 4.8 4.5 4.8 5.0 4.9 4.5 4.5 4.6 4.7 4.7 4.8 4.8 4.9 5.1 5.3 5.4 5.4 5.5 5.6
5.1 5.5 5.6 5.2 5.1 5.0 5.3 4.9 4.8 4.8 5.1 5.5 5.5 5.4 5.6 5.3 5.2 4.9 4.4 4.7 4.7 4.5 4.8 4.6 4.5 4.5 4.6 4.8 4.9 4.9 4.9 5.2 5.3 5.5 5.7 6.0 6.0 5.5
5.0 5.3 5.1 5.1 5.5 5.2 5.2 5.0 5.3 5.7 5.4 5.6 5.5 5.2 5.0 4.8 4.6 4.6 4.5 4.4 4.4 4.6 4.5 4.3 4.5 4.5 4.7 4.6 4.7 4.9 5.1 5.6 5.5 6.1 6.4 6.0 5.4 4.8
4.8 4.9 5.0 5.0 5.1 5.3 5.5 6.2 6.1 5.9 5.9 5.8 5.4 4.9 4.7 4.7 4.7 4.5 4.3 4.5 4.5 4.4 4.5 4.7 4.8 4.6 4.6 4.8 5.0 5.2 5.4 5.6 6.2 6.1 5.8 5.5 5.1 4.8
5.5 5.4 5.1 4.9 4.9 4.9 4.9 4.9 4.8 4.7 5.0 5.0 4.7 4.6 4.7 4.4 4.3 4.2 4.2 4.2 4.3 4.2 4.3 4.8 4.8 4.7 4.6 5.1 5.4 5.5 5.7 6.0 5.9 5.8 5.4 4.9 4.4 4.1
5.0 5.1 5.3 5.3 5.3 5.1 5.1 4.9 4.8 4.7 4.7 4.7 4.4 4.6 4.5 4.1 4.2 4.2 4.1 4.0 3.6 3.9 4.3 4.7 5.0 5.2 5.1 5.0 5.6 5.8 5.6 5.5 5.2 4.9 4.6 4.3 4.0 3.9
5.1 5.1 5.0 4.9 4.7 4.7 4.6 4.5 4.6 4.4 4.4 4.0 4.7 4.4 4.2 4.0 4.1 4.1 4.0 3.8 3.7 3.9 4.4 4.8 4.9 5.4 5.5 5.6 5.6 5.5 5.4 4.8 4.6 4.4 4.1 3.8 3.6 3.7
5.5 5.5 5.3 5.1 4.8 4.8 4.7 4.6 4.4 4.3 4.5 4.6 4.3 4.2 4.0 4.0 4.0 4.0 3.9 3.8 3.6 4.0 4.8 5.3 5.6 5.5 6.3 6.4 5.5 5.1 4.7 4.4 4.2 4.0 3.8 3.6 3.5 3.4
5.4 5.5 5.6 5.4 5.3 5.2 5.0 4.9 4.9 4.7 4.5 4.1 4.0 4.1 4.1 4.1 4.1 3.8 3.7 4.0 4.2 4.7 5.0 5.4 5.4 5.9 6.1 5.9 5.4 4.6 4.3 4.2 4.1 3.8 3.8 3.6 3.5 3.4
5.5 5.3 5.4 5.4 5.3 5.2 4.9 4.8 4.7 4.5 4.3 4.2 3.9 3.9 3.8 3.6 3.8 3.9 3.7 4.4 4.6 4.7 4.9 5.0 5.7 5.8 5.7 5.3 5.1 4.3 4.4 4.2 3.7 3.7 3.6 3.2 3.2 3.2
5.7 5.5 5.4 5.5 5.1 4.9 4.5 4.5 4.4 4.3 4.2 4.1 4.0 3.8 3.7 3.5 3.5 3.9 4.5 4.4 4.4 4.7 4.9 5.6 5.7 5.2 4.8 4.4 4.2 4.1 3.7 3.7 3.5 3.2 3.1 3.0 3.2 3.3
5.3 5.0 5.1 4.9 4.9 4.7 4.7 4.4 4.3 4.4 4.1 4.0 3.9 4.0 4.2 3.9 3.9 4.2 4.5 5.1 5.0 4.8 4.8 5.3 5.1 4.6 4.3 3.9 3.8 3.5 3.4 3.1 2.9 3.0 3.1 3.3 3.6 3.9
5.1 5.0 4.9 4.8 4.8 4.8 4.7 4.5 4.3 4.2 4.0 4.0 4.1 4.0 4.0 4.3 4.5 4.5 4.8 4.8 4.7 5.2 5.2 4.8 4.4 4.2 3.9 3.5 3.5 3.4 3.2 2.9 2.9 3.1 3.2 3.4 4.0 5.0
4.8 4.8 4.6 4.6 4.8 4.7 4.4 4.2 4.1 4.0 4.3 4.3 3.7 4.0 4.5 4.8 4.7 4.7 4.6 4.8 5.1 5.1 4.6 4.1 4.1 4.1 4.0 3.9 3.6 3.1 3.0 2.8 3.1 3.5 3.3 3.6 4.2 5.2
4.4 4.2 4.2 4.1 4.1 4.1 3.9 4.0 4.2 4.3 3.8 3.7 4.1 4.6 4.7 4.8 4.7 4.6 4.7 5.2 4.8 4.4 4.0 3.9 4.1 3.9 3.8 3.7 3.6 3.5 2.8 2.9 3.2 3.4 3.5 4.0 4.8 5.4
4.1 4.1 4.1 4.0 4.0 4.1 4.2 4.3 4.1 3.9 3.9 4.3 4.5 4.6 4.6 4.6 4.5 4.7 5.0 4.8 4.5 4.2 3.9 3.9 3.9 3.7 3.5 3.3 3.3 3.4 3.3 2.8 3.0 3.3 3.8 4.3 4.8 5.4
3.8 4.1 4.1 3.9 4.1 4.2 4.4 4.1 3.6 4.1 4.3 4.5 4.6 4.6 4.6 4.5 4.7 4.8 4.6 4.5 4.2 3.9 3.9 3.7 3.5 3.5 3.2 3.0 3.3 3.4 3.3 3.6 3.8 4.6 4.9 4.6 4.7 5.0
3.8 4.1 4.2 4.5 4.5 3.8 3.8 4.1 4.2 4.3 4.5 4.5 4.6 4.6 4.5 4.6 4.6 4.6 4.5 4.3 4.0 3.8 3.7 3.5 3.4 3.2 3.0 3.0 3.2 3.3 3.4 3.8 4.5 5.4 5.9 5.7 5.8 6.1
Wind_Speed
12 11 7 4 4 4 4 6 6 4 7 4 3 9 15 14 13 10 7 4 3 2 1 1 1 3 5 6 6 7 8 10 12 14 14 16 17 16
9 11 6 4 5 4 6 5 3 4 4 2 3 3 12 12 13 10 7 6 3 3 2 1 2 4 5 6 6 9 10 11 12 14 15 15 17 17
9 13 10 8 6 5 4 3 4 4 4 1 1 2 3 6 10 9 7 5 4 2 1 0 2 5 6 5 7 10 13 14 13 15 15 16 17 19
12 11 10 7 7 6 6 7 6 5 4 5 2 2 3 3 6 5 6 5 4 3 1 1 3 4 4 6 9 12 12 13 14 14 15 16 17 19
13 13 12 12 8 6 6 7 5 4 3 4 4 2 2 2 3 2 3 4 5 3 1 1 1 3 6 7 9 10 13 13 14 15 16 17 18 19
12 13 13 14 14 11 9 9 7 6 4 6 4 3 3 2 3 3 2 1 2 2 1 4 3 4 6 7 8 8 10 15 15 16 16 16 15 18
6 7 9 11 15 15 9 9 9 5 6 6 4 3 3 3 4 3 3 2 2 2 0 1 3 6 5 6 7 11 13 11 12 12 13 16 19 21
8 6 6 10 12 15 14 15 12 12 6 5 3 6 4 3 3 3 3 2 1 2 1 2 2 2 5 5 11 13 9 7 12 13 18 20 21 22
10 11 9 8 13 11 17 17 14 10 8 5 8 4 4 6 6 4 3 2 2 1 1 2 1 2 6 10 13 9 5 10 16 19 20 20 23 24
10 11 12 13 13 15 13 12 9 7 6 5 5 5 3 9 6 3 4 3 2 1 2 2 1 2 9 10 7 6 7 18 17 21 21 24 24 24
10 11 12 12 22 25 15 14 11 8 14 15 15 14 16 15 14 6 3 2 1 1 1 0 1 2 3 2 5 8 17 18 19 22 24 23 22 23
9 10 20 17 25 23 15 14 12 9 10 8 7 12 11 12 12 5 4 2 1 1 2 0 1 1 3 2 3 11 13 14 21 23 21 20 23 20
10 10 10 25 24 23 20 11 10 11 13 9 7 5 4 5 6 9 8 3 3 1 3 2 1 1 2 2 4 7 10 15 18 18 19 22 26 25
13 11 15 25 24 22 13 16 22 15 7 7 6 4 4 3 3 6 6 5 3 3 4 3 2 3 2 3 4 2 7 14 13 11 14 20 25 25
9 16 26 25 23 16 20 20 19 7 7 7 5 3 3 3 8 6 4 2 2 6 6 3 4 2 2 3 4 4 7 3 12 7 13 13 13 18
20 17 18 16 15 12 13 12 7 7 7 6 5 4 4 3 2 2 2 2 1 2 2 4 3 5 2 4 3 5 6 2 4 7 10 13 17 18
15 11 9 9 8 7 6 7 6 6 5 4 5 5 5 4 2 1 1 2 2 1 2 3 6 7 10 5 3 5 6 5 7 8 8 10 9 15
10 10 9 9 9 9 7 6 6 9 5 5 5 6 5 5 3 2 1 2 1 1 1 1 2 2 3 6 15 5 6 6 6 7 8 8 11 11
5 7 8 7 7 6 6 6 5 5 6 5 5 5 5 4 6 3 2 2 1 2 2 1 1 1 2 2 3 13 3 7 7 8 8 8 11 13
6 8 7 6 6 6 6 5 5 5 4 5 5 5 5 4 2 3 3 3 2 1 1 1 1 3 2 3 4 8 19 7 6 9 10 9 14 27
6 6 6 6 6 6 5 5 5 5 4 4 4 4 4 3 2 3 3 7 6 2 2 2 3 7 3 3 3 4 5 16 16 8 8 9 10 12
6 6 6 5 5 5 5 5 4 5 4 3 3 4 4 3 3 3 4 3 2 3 3 2 3 1 1 3 5 6 6 8 18 18 19 18 7 9
5 5 4 4 5 5 5 5 4 4 4 4 4 3 4 3 3 4 3 3 2 1 2 3 2 0 2 3 9 7 11 11 6 10 8 19 21 27
Wind_Direction
178 178 174 168 156 149 144 153 143 167 205 194 168 189 183 182 175 169 162 156 148 139 98 45 359 335 326 336 336 324 326 331 332 329 327 328 324 322
171 170 160 156 161 155 159 156 138 140 152 155 192 157 172 171 172 169 167 163 150 136 100 37 349 340 316 319 325 327 317 316 323 323 321 322 321 318
168 178 176 158 168 163 151 138 142 135 122 163 106 165 140 150 159 164 164 165 168 143 99 99 355 320 320 321 324 325 316 311 315 315 315 316 315 313
173 174 177 168 168 164 165 175 170 160 132 145 146 136 130 144 151 147 170 168 195 197 293 340 313 313 313 316 317 316 316 318 314 312 311 312 311 312
179 180 180 169 173 171 172 172 162 149 136 139 139 134 117 138 124 131 169 174 199 192 52 45 323 338 314 317 322 322 315 313 310 310 314 313 311 312
181 184 179 181 183 178 176 174 153 145 128 133 104 117 116 133 113 152 166 123 210 205 225 135 6 333 325 331 332 328 320 317 314 311 308 306 313 319
172 179 178 185 182 176 163 159 146 133 137 134 119 118 130 142 176 162 156 158 228 227 233 222 324 329 326 330 319 321 321 319 323 326 324 319 317 315
146 123 125 129 138 150 143 143 151 148 146 133 136 150 146 153 130 165 144 158 226 189 182 270 331 296 307 317 312 317 318 334 340 336 329 317 313 311
153 143 137 138 131 132 132 123 123 126 133 126 143 148 143 168 150 142 155 142 180 182 103 281 108 290 297 307 317 322 316 345 333 332 329 325 317 311
155 153 145 145 144 135 124 112 104 99 99 102 118 135 129 146 127 133 140 125 103 127 140 248 82 277 302 314 342 351 326 332 329 329 323 319 315 312
144 141 141 139 145 139 127 120 113 107 107 111 119 130 131 133 131 115 116 119 225 148 62 115 37 311 297 321 340 349 337 329 325 324 324 324 319 318
120 133 144 143 148 140 131 131 130 141 134 125 123 105 118 140 144 138 147 137 145 314 164 297 330 32 316 285 285 326 311 314 324 323 326 324 322 319
147 145 148 148 146 143 138 143 147 147 146 117 112 108 94 100 106 126 137 131 146 198 196 143 178 279 219 284 294 287 297 312 318 318 319 320 318 316
152 150 147 145 145 143 137 140 146 137 128 126 131 134 147 140 141 135 134 134 144 200 249 179 202 178 203 272 274 276 301 297 290 287 297 304 305 307
141 146 143 143 143 141 150 144 140 138 139 137 153 157 148 139 130 113 125 147 230 263 265 222 196 219 203 242 272 287 306 290 292 280 298 292 289 293
145 144 149 142 130 139 149 141 130 143 139 144 141 119 109 123 95 117 126 93 26 314 309 327 272 215 261 235 231 277 284 267 286 296 289 289 290 285
148 143 142 139 145 146 128 142 136 138 140 142 146 143 142 147 127 130 112 122 150 163 307 312 302 285 249 234 283 261 274 278 281 285 301 297 290 287
148 150 151 151 151 152 150 144 150 154 146 141 148 157 157 149 148 159 137 138 179 163 223 235 301 346 336 279 228 254 276 274 286 294 295 294 301 304
151 148 145 141 140 148 152 159 156 151 137 153 158 169 153 152 171 174 164 175 199 193 238 226 82 86 331 300 278 269 235 295 300 301 291 289 293 299
143 142 131 126 138 144 146 147 150 147 157 158 158 165 159 151 148 177 171 161 183 234 253 267 191 186 198 259 290 288 289 281 283 286 294 291 285 292
122 109 115 130 139 140 149 154 160 165 157 161 159 160 159 148 176 167 170 202 213 176 244 245 230 276 257 292 291 273 278 286 282 282 297 303 303 311
117 125 131 140 149 152 154 152 151 168 152 155 157 159 159 159 175 177 185 180 200 198 232 259 289 303 175 205 263 288 282 291 293 287 289 285 285 293
131 132 139 146 152 154 151 150 152 154 156 161 158 157 149 172 197 187 182 186 175 211 238 294 302 278 237 216 284 282 288 295 302 316 300 301 294 292